Time,TemperatureF,DewpointF,PressureIn,WindDirection,WindDirectionDegrees,WindSpeedMPH,WindSpeedGustMPH,Humidity,HourlyPrecipIn,Conditions,Clouds,dailyrainin,SoftwareType,DateUTC
2013-02-22 00:02:00,20.0,17.0,29.97,SSE,154,0.0,-999.0,87,-99.99,,,-99.99,,2013-02-22 05:02:00,
2013-02-22 00:12:00,20.0,17.0,29.97,SSE,154,0.0,-999.0,87,-99.99,,,-99.99,,2013-02-22 05:12:00,
2013-02-22 00:22:00,22.0,18.0,29.93,South,172,0.0,-999.0,86,-99.99,,,-99.99,,2013-02-22 05:22:00,
2013-02-22 00:32:00,21.0,17.0,30.00,South,170,0.0,-999.0,86,-99.99,,,-99.99,,2013-02-22 05:32:00,
2013-02-22 00:42:00,21.0,17.0,30.00,South,170,0.0,-999.0,86,-99.99,,,-99.99,,2013-02-22 05:42:00,
2013-02-22 00:52:00,23.0,19.0,29.97,SE,142,1.0,-999.0,85,-99.99,,,-99.99,,2013-02-22 05:52:00,
2013-02-22 01:02:00,22.0,18.0,30.03,SSE,165,1.0,-999.0,85,-99.99,,,-99.99,,2013-02-22 06:02:00,
2013-02-22 01:12:00,22.0,18.0,30.03,SSE,165,1.0,-999.0,85,-99.99,,,-99.99,,2013-02-22 06:12:00,
2013-02-22 01:22:00,23.0,19.0,29.98,South,189,0.0,-999.0,85,-99.99,,,-99.99,,2013-02-22 06:22:00,
2013-02-22 01:32:00,23.0,19.0,30.04,South,184,1.0,-999.0,85,-99.99,,,-99.99,,2013-02-22 06:32:00,
2013-02-22 01:42:00,23.0,19.0,30.04,South,184,1.0,-999.0,85,-99.99,,,-99.99,,2013-02-22 06:42:00,
2013-02-22 01:52:00,23.0,19.0,30.03,South,176,1.0,-999.0,85,-99.99,,,-99.99,,2013-02-22 06:52:00,
2013-02-22 02:01:00,23.0,19.0,30.03,South,176,1.0,-999.0,85,-99.99,,,-99.99,,2013-02-22 07:01:00,
2013-02-22 02:11:00,23.0,19.0,30.03,South,176,1.0,-999.0,85,-99.99,,,-99.99,,2013-02-22 07:11:00,
2013-02-22 02:22:00,23.0,19.0,29.98,South,185,0.0,-999.0,85,-99.99,,,-99.99,,2013-02-22 07:22:00,
2013-02-22 02:32:00,23.0,19.0,30.03,WSW,238,0.0,-999.0,85,-99.99,,,-99.99,,2013-02-22 07:32:00,
2013-02-22 02:42:00,23.0,19.0,30.03,WSW,238,0.0,-999.0,85,-99.99,,,-99.99,,2013-02-22 07:42:00,
2013-02-22 02:52:00,24.0,20.0,29.98,South,188,1.0,-999.0,84,-99.99,,,-99.99,,2013-02-22 07:52:00,
2013-02-22 03:01:00,23.0,19.0,30.03,South,188,0.0,-999.0,84,-99.99,,,-99.99,,2013-02-22 08:01:00,
2013-02-22 03:11:00,23.0,19.0,30.03,South,188,0.0,-999.0,84,-99.99,,,-99.99,,2013-02-22 08:11:00,
2013-02-22 03:21:00,24.0,20.0,29.97,SSW,197,0.0,-999.0,84,-99.99,,,-99.99,,2013-02-22 08:21:00,
2013-02-22 03:32:00,24.0,20.0,30.02,SSW,197,0.0,-999.0,84,-99.99,,,-99.99,,2013-02-22 08:32:00,
2013-02-22 03:42:00,24.0,20.0,30.02,SSW,197,0.0,-999.0,84,-99.99,,,-99.99,,2013-02-22 08:42:00,
2013-02-22 03:52:00,24.0,20.0,29.96,SSW,197,0.0,-999.0,84,-99.99,,,-99.99,,2013-02-22 08:52:00,
2013-02-22 04:03:00,23.0,19.0,30.03,SSW,197,0.0,-999.0,86,-99.99,,,-99.99,,2013-02-22 09:03:00,
2013-02-22 04:11:00,24.0,20.0,29.97,SSW,197,0.0,-999.0,86,-99.99,,,-99.99,,2013-02-22 09:11:00,
2013-02-22 04:22:00,24.0,20.0,29.97,SSW,197,0.0,-999.0,86,-99.99,,,-99.99,,2013-02-22 09:22:00,
2013-02-22 04:32:00,23.0,19.0,30.03,SSW,213,0.0,-999.0,85,-99.99,,,-99.99,,2013-02-22 09:32:00,
2013-02-22 04:42:00,23.0,19.0,30.03,SSW,213,0.0,-999.0,85,-99.99,,,-99.99,,2013-02-22 09:42:00,
2013-02-22 04:52:00,23.0,19.0,29.97,SSW,213,0.0,-999.0,86,-99.99,,,-99.99,,2013-02-22 09:52:00,
2013-02-22 05:01:00,22.0,18.0,30.03,SSW,213,0.0,-999.0,86,-99.99,,,-99.99,,2013-02-22 10:01:00,
2013-02-22 05:11:00,22.0,18.0,30.03,SSW,213,0.0,-999.0,86,-99.99,,,-99.99,,2013-02-22 10:11:00,
2013-02-22 05:21:00,21.0,18.0,29.98,SSW,213,0.0,-999.0,89,-99.99,,,-99.99,,2013-02-22 10:21:00,
2013-02-22 05:32:00,20.0,17.0,30.03,SSW,213,0.0,-999.0,89,-99.99,,,-99.99,,2013-02-22 10:32:00,
2013-02-22 05:42:00,20.0,17.0,30.03,SSW,213,0.0,-999.0,89,-99.99,,,-99.99,,2013-02-22 10:42:00,
2013-02-22 05:52:00,19.0,17.0,29.98,SSW,213,1.0,-999.0,90,-99.99,,,-99.99,,2013-02-22 10:52:00,
2013-02-22 06:01:00,18.0,16.0,30.03,SSW,213,0.0,-999.0,90,-99.99,,,-99.99,,2013-02-22 11:01:00,
2013-02-22 06:11:00,18.0,16.0,30.03,SSW,213,0.0,-999.0,90,-99.99,,,-99.99,,2013-02-22 11:11:00,
2013-02-22 06:22:00,18.0,16.0,29.98,SSW,213,1.0,-999.0,92,-99.99,,,-99.99,,2013-02-22 11:22:00,
2013-02-22 06:32:00,17.0,15.0,30.05,SSW,213,0.0,-999.0,92,-99.99,,,-99.99,,2013-02-22 11:32:00,
2013-02-22 06:42:00,17.0,15.0,30.05,SSW,213,0.0,-999.0,92,-99.99,,,-99.99,,2013-02-22 11:42:00,
2013-02-22 06:52:00,15.0,13.0,29.99,SSW,213,1.0,-999.0,91,-99.99,,,-99.99,,2013-02-22 11:52:00,
2013-02-22 07:02:00,15.0,13.0,29.99,SSW,213,1.0,-999.0,91,-99.99,,,-99.99,,2013-02-22 12:02:00,
2013-02-22 07:11:00,15.0,13.0,29.99,SSW,213,1.0,-999.0,91,-99.99,,,-99.99,,2013-02-22 12:11:00,
2013-02-22 07:22:00,17.0,15.0,30.03,SSW,207,0.0,-999.0,92,-99.99,,,-99.99,,2013-02-22 12:22:00,
2013-02-22 07:32:00,16.0,14.0,30.09,SSW,207,0.0,-999.0,93,-99.99,,,-99.99,,2013-02-22 12:32:00,
2013-02-22 07:42:00,16.0,14.0,30.09,SSW,207,0.0,-999.0,93,-99.99,,,-99.99,,2013-02-22 12:42:00,
2013-02-22 07:52:00,18.0,16.0,30.04,South,176,0.0,-999.0,91,-99.99,,,-99.99,,2013-02-22 12:52:00,
2013-02-22 08:02:00,17.0,15.0,30.10,South,176,0.0,-999.0,91,-99.99,,,-99.99,,2013-02-22 13:02:00,
2013-02-22 08:11:00,17.0,15.0,30.10,South,176,0.0,-999.0,91,-99.99,,,-99.99,,2013-02-22 13:11:00,
2013-02-22 08:22:00,19.0,17.0,30.06,South,176,0.0,-999.0,92,-99.99,,,-99.99,,2013-02-22 13:22:00,
2013-02-22 08:32:00,19.0,17.0,30.11,South,176,0.0,-999.0,93,-99.99,,,-99.99,,2013-02-22 13:32:00,
2013-02-22 08:52:00,21.0,18.0,30.06,South,176,0.0,-999.0,89,-99.99,,,-99.99,,2013-02-22 13:52:00,
2013-02-22 09:01:00,21.0,18.0,30.11,South,176,0.0,-999.0,89,-99.99,,,-99.99,,2013-02-22 14:01:00,
2013-02-22 09:11:00,23.0,20.0,30.05,South,176,0.0,-999.0,87,-99.99,,,-99.99,,2013-02-22 14:11:00,
2013-02-22 09:21:00,23.0,20.0,30.05,South,176,0.0,-999.0,87,-99.99,,,-99.99,,2013-02-22 14:21:00,
2013-02-22 09:32:00,23.0,20.0,30.05,South,176,0.0,-999.0,87,-99.99,,,-99.99,,2013-02-22 14:32:00,
2013-02-22 09:42:00,23.0,20.0,30.05,South,176,0.0,-999.0,87,-99.99,,,-99.99,,2013-02-22 14:42:00,
2013-02-22 09:53:00,25.0,21.0,30.04,East,84,0.0,-999.0,83,-99.99,,,-99.99,,2013-02-22 14:53:00,
2013-02-22 10:02:00,25.0,21.0,30.09,East,83,1.0,-999.0,83,-99.99,,,-99.99,,2013-02-22 15:02:00,
2013-02-22 10:12:00,25.0,21.0,30.09,East,83,1.0,-999.0,83,-99.99,,,-99.99,,2013-02-22 15:12:00,
2013-02-22 10:22:00,27.0,22.0,30.04,ENE,65,0.0,-999.0,80,-99.99,,,-99.99,,2013-02-22 15:22:00,
2013-02-22 10:32:00,27.0,21.0,30.09,ENE,70,0.0,-999.0,79,-99.99,,,-99.99,,2013-02-22 15:32:00,
2013-02-22 10:42:00,27.0,21.0,30.09,ENE,70,0.0,-999.0,79,-99.99,,,-99.99,,2013-02-22 15:42:00,
2013-02-22 10:52:00,29.0,23.0,30.04,ENE,74,1.0,-999.0,77,-99.99,,,-99.99,,2013-02-22 15:52:00,
2013-02-22 11:02:00,29.0,22.0,30.09,East,95,1.0,-999.0,74,-99.99,,,-99.99,,2013-02-22 16:02:00,
2013-02-22 11:12:00,29.0,22.0,30.09,East,95,1.0,-999.0,74,-99.99,,,-99.99,,2013-02-22 16:12:00,
2013-02-22 11:22:00,30.0,22.0,30.03,North,11,0.0,-999.0,73,-99.99,,,-99.99,,2013-02-22 16:22:00,
2013-02-22 11:32:00,30.0,22.0,30.07,North,349,2.0,-999.0,71,-99.99,,,-99.99,,2013-02-22 16:32:00,
2013-02-22 11:42:00,30.0,22.0,30.07,North,349,2.0,-999.0,71,-99.99,,,-99.99,,2013-02-22 16:42:00,
2013-02-22 11:52:00,31.0,22.0,30.07,West,275,2.0,-999.0,68,-99.99,,,-99.99,,2013-02-22 16:52:00,
2013-02-22 12:01:00,31.0,22.0,30.07,West,275,2.0,-999.0,68,-99.99,,,-99.99,,2013-02-22 17:01:00,
2013-02-22 12:11:00,31.0,22.0,30.07,West,275,2.0,-999.0,68,-99.99,,,-99.99,,2013-02-22 17:11:00,
2013-02-22 12:22:00,32.0,22.0,30.01,WNW,292,3.0,-999.0,65,-99.99,,,-99.99,,2013-02-22 17:22:00,
2013-02-22 12:32:00,31.0,20.0,30.05,North,8,2.0,-999.0,64,-99.99,,,-99.99,,2013-02-22 17:32:00,
2013-02-22 12:42:00,31.0,20.0,30.05,North,8,2.0,-999.0,64,-99.99,,,-99.99,,2013-02-22 17:42:00,
2013-02-22 12:52:00,33.0,22.0,30.00,North,360,3.0,-999.0,63,-99.99,,,-99.99,,2013-02-22 17:52:00,
2013-02-22 13:02:00,32.0,20.0,30.04,WNW,302,2.0,-999.0,62,-99.99,,,-99.99,,2013-02-22 18:02:00,
2013-02-22 13:12:00,32.0,20.0,30.04,WNW,302,2.0,-999.0,62,-99.99,,,-99.99,,2013-02-22 18:12:00,
2013-02-22 13:22:00,33.0,21.0,29.98,WNW,297,0.0,-999.0,60,-99.99,,,-99.99,,2013-02-22 18:22:00,
2013-02-22 13:32:00,34.0,22.0,30.03,NNW,328,1.0,-999.0,61,-99.99,,,-99.99,,2013-02-22 18:32:00,
2013-02-22 13:42:00,34.0,22.0,30.03,NNW,328,1.0,-999.0,61,-99.99,,,-99.99,,2013-02-22 18:42:00,
2013-02-22 13:52:00,35.0,21.0,29.98,ESE,112,1.0,-999.0,57,-99.99,,,-99.99,,2013-02-22 18:52:00,
2013-02-22 14:01:00,35.0,22.0,30.02,East,85,2.0,-999.0,58,-99.99,,,-99.99,,2013-02-22 19:01:00,
2013-02-22 14:11:00,35.0,22.0,29.98,NNE,30,2.0,-999.0,58,-99.99,,,-99.99,,2013-02-22 19:11:00,
2013-02-22 14:21:00,35.0,22.0,29.98,NNE,30,2.0,-999.0,58,-99.99,,,-99.99,,2013-02-22 19:21:00,
2013-02-22 14:31:00,34.0,21.0,30.02,NE,34,2.0,-999.0,58,-99.99,,,-99.99,,2013-02-22 19:31:00,
2013-02-22 14:41:00,34.0,21.0,30.02,NE,34,2.0,-999.0,58,-99.99,,,-99.99,,2013-02-22 19:41:00,
2013-02-22 14:52:00,35.0,22.0,29.95,NNW,330,0.0,-999.0,58,-99.99,,,-99.99,,2013-02-22 19:52:00,
2013-02-22 15:01:00,34.0,21.0,30.00,NNW,333,0.0,-999.0,59,-99.99,,,-99.99,,2013-02-22 20:01:00,
2013-02-22 15:11:00,34.0,21.0,30.00,NNW,333,0.0,-999.0,59,-99.99,,,-99.99,,2013-02-22 20:11:00,
2013-02-22 15:21:00,35.0,22.0,29.96,East,93,0.0,-999.0,59,-99.99,,,-99.99,,2013-02-22 20:21:00,
2013-02-22 15:32:00,34.0,21.0,30.01,East,97,1.0,-999.0,59,-99.99,,,-99.99,,2013-02-22 20:32:00,
2013-02-22 15:42:00,34.0,21.0,30.01,East,97,1.0,-999.0,59,-99.99,,,-99.99,,2013-02-22 20:42:00,
2013-02-22 15:52:00,34.0,22.0,29.96,East,100,1.0,-999.0,60,-99.99,,,-99.99,,2013-02-22 20:52:00,
2013-02-22 16:02:00,34.0,22.0,30.00,East,100,0.0,-999.0,61,-99.99,,,-99.99,,2013-02-22 21:02:00,
2013-02-22 16:11:00,34.0,22.0,30.00,East,100,0.0,-999.0,61,-99.99,,,-99.99,,2013-02-22 21:11:00,
2013-02-22 16:21:00,35.0,23.0,29.96,East,100,0.0,-999.0,60,-99.99,,,-99.99,,2013-02-22 21:21:00,
2013-02-22 16:32:00,34.0,22.0,29.99,East,100,0.0,-999.0,61,-99.99,,,-99.99,,2013-02-22 21:32:00,
2013-02-22 16:42:00,34.0,22.0,29.99,East,100,0.0,-999.0,61,-99.99,,,-99.99,,2013-02-22 21:42:00,
2013-02-22 16:52:00,34.0,22.0,29.99,East,100,0.0,-999.0,61,-99.99,,,-99.99,,2013-02-22 21:52:00,
2013-02-22 17:01:00,34.0,22.0,29.99,East,100,0.0,-999.0,61,-99.99,,,-99.99,,2013-02-22 22:01:00,
2013-02-22 17:11:00,34.0,22.0,29.99,East,100,0.0,-999.0,61,-99.99,,,-99.99,,2013-02-22 22:11:00,
2013-02-22 17:21:00,33.0,23.0,29.93,East,100,0.0,-999.0,65,-99.99,,,-99.99,,2013-02-22 22:21:00,
2013-02-22 17:32:00,33.0,23.0,29.97,East,100,0.0,-999.0,65,-99.99,,,-99.99,,2013-02-22 22:32:00,
2013-02-22 17:42:00,33.0,23.0,29.97,East,100,0.0,-999.0,65,-99.99,,,-99.99,,2013-02-22 22:42:00,
2013-02-22 17:52:00,31.0,22.0,29.93,East,100,0.0,-999.0,70,-99.99,,,-99.99,,2013-02-22 22:52:00,
2013-02-22 18:01:00,30.0,21.0,29.98,East,100,0.0,-999.0,69,-99.99,,,-99.99,,2013-02-22 23:01:00,
2013-02-22 18:11:00,30.0,21.0,29.98,East,100,0.0,-999.0,69,-99.99,,,-99.99,,2013-02-22 23:11:00,
2013-02-22 18:21:00,29.0,22.0,29.94,East,101,0.0,-999.0,76,-99.99,,,-99.99,,2013-02-22 23:21:00,
2013-02-22 18:32:00,28.0,22.0,29.98,East,101,0.0,-999.0,77,-99.99,,,-99.99,,2013-02-22 23:32:00,
2013-02-22 18:42:00,28.0,22.0,29.98,East,101,0.0,-999.0,77,-99.99,,,-99.99,,2013-02-22 23:42:00,
2013-02-22 18:52:00,28.0,22.0,29.93,East,101,0.0,-999.0,79,-99.99,,,-99.99,,2013-02-22 23:52:00,
2013-02-22 19:02:00,27.0,22.0,29.98,East,101,0.0,-999.0,80,-99.99,,,-99.99,,2013-02-23 00:02:00,
2013-02-22 19:11:00,27.0,22.0,29.98,East,101,0.0,-999.0,80,-99.99,,,-99.99,,2013-02-23 00:11:00,
2013-02-22 19:21:00,27.0,22.0,29.98,East,101,0.0,-999.0,81,-99.99,,,-99.99,,2013-02-23 00:21:00,
2013-02-22 19:32:00,27.0,22.0,29.98,East,101,0.0,-999.0,81,-99.99,,,-99.99,,2013-02-23 00:32:00,
2013-02-22 19:42:00,27.0,22.0,29.98,East,101,0.0,-999.0,81,-99.99,,,-99.99,,2013-02-23 00:42:00,
2013-02-22 19:52:00,27.0,23.0,29.95,East,101,0.0,-999.0,83,-99.99,,,-99.99,,2013-02-23 00:52:00,
2013-02-22 20:01:00,27.0,23.0,29.99,East,101,0.0,-999.0,83,-99.99,,,-99.99,,2013-02-23 01:01:00,
2013-02-22 20:11:00,27.0,23.0,29.99,East,101,0.0,-999.0,83,-99.99,,,-99.99,,2013-02-23 01:11:00,
2013-02-22 20:21:00,26.0,22.0,29.94,East,101,0.0,-999.0,85,-99.99,,,-99.99,,2013-02-23 01:21:00,
2013-02-22 20:32:00,26.0,22.0,29.98,East,101,0.0,-999.0,85,-99.99,,,-99.99,,2013-02-23 01:32:00,
2013-02-22 20:42:00,26.0,22.0,29.98,East,101,0.0,-999.0,85,-99.99,,,-99.99,,2013-02-23 01:42:00,
2013-02-22 20:52:00,27.0,23.0,29.94,East,101,0.0,-999.0,85,-99.99,,,-99.99,,2013-02-23 01:52:00,
2013-02-22 21:01:00,26.0,22.0,29.97,East,101,0.0,-999.0,84,-99.99,,,-99.99,,2013-02-23 02:01:00,
2013-02-22 21:11:00,27.0,23.0,29.93,East,101,0.0,-999.0,84,-99.99,,,-99.99,,2013-02-23 02:11:00,
2013-02-22 21:21:00,27.0,23.0,29.93,East,101,0.0,-999.0,84,-99.99,,,-99.99,,2013-02-23 02:21:00,
2013-02-22 21:32:00,26.0,22.0,29.97,East,101,0.0,-999.0,84,-99.99,,,-99.99,,2013-02-23 02:32:00,
2013-02-22 21:42:00,26.0,22.0,29.97,East,101,0.0,-999.0,84,-99.99,,,-99.99,,2013-02-23 02:42:00,
2013-02-22 21:52:00,27.0,23.0,29.93,East,101,0.0,-999.0,84,-99.99,,,-99.99,,2013-02-23 02:52:00,
2013-02-22 22:02:00,26.0,22.0,29.96,SSW,193,0.0,-999.0,85,-99.99,,,-99.99,,2013-02-23 03:02:00,
2013-02-22 22:11:00,26.0,22.0,29.96,SSW,193,0.0,-999.0,85,-99.99,,,-99.99,,2013-02-23 03:11:00,
2013-02-22 22:21:00,26.0,22.0,29.93,ESE,114,0.0,-999.0,86,-99.99,,,-99.99,,2013-02-23 03:21:00,
2013-02-22 22:32:00,25.0,21.0,29.97,ESE,114,0.0,-999.0,86,-99.99,,,-99.99,,2013-02-23 03:32:00,
2013-02-22 22:42:00,25.0,21.0,29.97,ESE,114,0.0,-999.0,86,-99.99,,,-99.99,,2013-02-23 03:42:00,
2013-02-22 22:52:00,26.0,23.0,29.93,SSE,160,0.0,-999.0,87,-99.99,,,-99.99,,2013-02-23 03:52:00,
2013-02-22 23:01:00,25.0,22.0,29.96,SSE,160,0.0,-999.0,87,-99.99,,,-99.99,,2013-02-23 04:01:00,
2013-02-22 23:11:00,25.0,22.0,29.96,SSE,160,0.0,-999.0,87,-99.99,,,-99.99,,2013-02-23 04:11:00,
2013-02-22 23:21:00,26.0,23.0,29.91,SSE,160,0.0,-999.0,87,-99.99,,,-99.99,,2013-02-23 04:21:00,
2013-02-22 23:32:00,25.0,22.0,29.96,ESE,110,1.0,-999.0,87,-99.99,,,-99.99,,2013-02-23 04:32:00,
2013-02-22 23:42:00,25.0,22.0,29.96,ESE,110,1.0,-999.0,87,-99.99,,,-99.99,,2013-02-23 04:42:00,
2013-02-22 23:52:00,26.0,23.0,29.93,ESE,110,0.0,-999.0,88,-99.99,,,-99.99,,2013-02-23 04:52:00,